sat.trackr.live / text

‹ back to catalog

STARLINK-36267

NORAD 67198 · 2025-304G

PAYLOAD ACTIVE UNKNOWN

§ Identity

Operator
Country
US
Launch date
2025-12-17
Launch site
AFWTR
Launch vehicle
Mass (kg)
RCS (m²)

Purposes: comms

External: N2YO · Heavens-Above · Gunter

§ Orbital elements

Epoch: 2026-05-24T22:21:29.907360Z

Period
96.11 min
Inclination
70.0019°
Eccentricity
0.0002402
Mean motion
14.98334724 rev/d
Perigee alt
570.4 km
Apogee alt
573.7 km
Semi-major
6,950.2 km
B*
1.8859e-4
RAAN
342.2778°
Arg perigee
266.0643°
Mean anomaly
94.0241°
Rev number
2,527

§ Raw data

STARLINK-362671 67198U 25304G   26144.93159615  .00002158  00000+0  18859-3 0  99902 67198  70.0019 342.2778 0002402 266.0643  94.0241 14.98334724 25279

JSON: /api/v1/satellites/67198 · /tle

For live sub-satellite position, see the globe view (requires WebGL).

§ Visibility from observer

Set your observer location to see the next 7 days of passes ≥ 10°. The values pass through the URL so the page stays shareable.

No JS? Fill the form by hand. The geolocation button needs JavaScript.